Location: Campillo
(40.8621°N, 4.2488°W)
Time: 18:43:01
(UTC+00:00)

Cosmos 158 Rocket - Pass Details

Date: 01 October 2021
Orbit: 699 x 792 km, 74.0° (Epoch: 27 October)

Event Time Altitude Azimuth Distance (km) Brightness Sun altitude
Rises 20:19:39 0° 322° (NW) 3,124 8.0 -27.0°
Reaches altitude 10° 20:22:49 10° 301° (WNW) 2,185 7.3 -27.6°
Maximum altitude 20:25:45 16° 264° (W) 1,795 6.6 -28.1°
Drops below altitude 10° 20:28:39 10° 227° (SW) 2,159 6.6 -28.6°
Sets 20:31:46 0° 206° (SSW) 3,068 7.2 -29.2°
